Temp
14 14 14 14 14 13 13 13 13 13 13 13 13 13 12 12 12 11 11 11 10 10 10 10 9 9 9 9 9 9 8 8 8 8 7 7 7 7 7 6 6 6 6 6 5 5 5 5 5 5 4 4 4 4 4 4 4 3 3 3 3 3 3 3 2 2 2 2 2
14 14 13 13 13 13 13 13 13 13 13 13 12 12 12 12 11 11 11 10 10 10 10 9 9 9 9 9 9 9 8 8 8 8 7 7 7 7 6 6 6 6 6 5 5 5 5 5 4 4 4 4 4 4 4 3 3 3 3 3 3 3 2 2 2 2 2 2 2
13 13 13 13 13 13 13 13 13 13 13 12 12 12 12 11 11 11 10 10 10 10 10 9 9 9 9 9 9 8 8 8 8 7 7 7 7 6 6 6 6 5 5 5 5 5 4 4 4 4 4 4 4 4 3 3 3 3 3 3 2 2 2 2 2 2 2 2 2
13 13 13 13 13 13 13 13 13 12 12 12 12 12 11 11 11 11 10 10 10 10 10 9 9 9 9 9 9 8 8 8 8 7 7 7 6 6 6 6 5 5 5 5 5 4 4 4 4 4 4 4 3 3 3 3 3 3 2 2 2 2 2 2 2 2 2 2 2
13 13 13 12 12 12 13 13 12 12 12 12 12 11 11 11 11 10 10 10 10 10 10 10 9 9 9 9 9 8 8 8 8 7 7 7 6 6 6 6 5 5 5 5 4 4 4 4 4 4 3 3 3 3 3 3 2 2 2 2 2 2 2 2 2 2 2 2 2
13 12 12 12 12 12 12 12 12 12 12 11 11 11 11 11 11 10 10 10 10 10 10 10 10 9 9 9 9 9 8 8 8 7 7 7 6 6 6 5 5 5 5 4 4 4 4 4 4 3 3 3 3 3 3 2 2 2 2 2 2 2 2 2 2 2 2 2 1
12 12 12 12 12 12 12 12 12 11 11 11 11 11 11 11 11 10 10 10 10 10 10 10 10 10 9 9 9 9 8 8 8 7 7 6 6 6 5 5 5 5 4 4 4 4 4 4 3 3 3 3 3 3 2 2 2 2 2 2 2 2 2 2 2 2 2 1 1
12 12 12 12 12 12 12 11 11 11 11 11 11 11 11 11 11 11 10 10 10 10 10 10 10 10 9 9 9 8 8 8 7 7 7 6 6 6 5 5 5 4 4 4 4 4 4 3 3 3 3 3 3 2 2 2 2 2 2 2 2 2 2 2 2 1 1 1 1
12 12 12 12 11 11 11 11 11 11 11 11 11 11 11 11 11 11 10 10 10 10 10 10 10 9 9 9 9 8 8 8 7 7 6 6 5 5 5 5 4 4 4 4 4 4 3 3 3 3 3 3 2 2 2 2 2 2 2 2 2 2 2 2 2 1 1 1 1
12 12 11 11 11 11 11 11 11 11 11 11 11 11 11 11 11 11 10 10 10 10 10 10 9 9 9 8 8 8 7 7 7 6 6 5 5 5 5 4 4 4 4 4 3 3 3 3 3 3 3 2 2 2 2 2 2 2 2 2 2 2 2 2 2 1 1 1 1
12 11 11 11 11 11 11 11 11 11 11 11 11 11 11 11 11 11 10 10 10 10 9 9 9 9 8 8 8 7 7 7 6 6 5 5 5 4 4 4 4 4 4 3 3 3 3 3 3 3 3 2 2 2 2 2 2 2 2 2 1 1 1 1 1 1 1 1 1
12 11 11 11 11 11 11 11 11 11 11 11 11 11 11 11 11 10 10 10 10 9 9 9 9 8 8 8 7 7 6 6 6 5 5 5 4 4 4 4 4 4 3 3 3 3 3 3 3 2 2 2 2 2 2 2 2 1 1 1 1 1 1 1 1 1 1 1 1
11 11 11 11 11 11 11 11 11 11 11 11 11 11 11 10 10 10 10 10 9 9 9 8 8 8 7 7 7 6 6 6 5 5 5 4 4 4 4 4 4 3 3 3 3 3 3 3 2 2 2 2 2 2 2 2 1 1 1 1 1 1 1 1 1 1 1 1 1
11 11 11 11 11 11 11 11 11 11 11 11 11 10 10 10 10 10 10 9 9 9 8 8 7 7 7 7 6 6 6 5 5 5 4 4 4 4 4 4 3 3 3 3 3 3 3 2 2 2 2 2 2 2 2 1 1 1 1 1 1 1 1 1 1 1 1 1 1
11 11 11 11 11 11 11 11 11 11 11 11 10 10 10 10 10 10 9 9 9 8 8 7 7 7 6 6 6 5 5 5 5 4 4 4 4 4 4 3 3 3 3 3 3 3 2 2 2 2 2 2 2 2 2 1 1 1 1 1 1 1 1 1 1 1 1 1 1
11 11 11 11 11 11 11 11 11 11 10 10 10 10 10 10 9 9 9 9 8 8 7 7 7 6 6 6 5 5 5 5 4 4 4 4 4 4 3 3 3 3 3 3 3 3 2 2 2 2 2 2 2 2 1 1 1 1 1 1 1 1 1 1 1 1 1 1 1
11 11 11 11 11 11 11 11 11 10 10 10 10 10 10 9 9 9 9 8 8 7 7 7 6 6 6 5 5 5 5 4 4 4 4 4 4 3 3 3 3 3 3 3 3 2 2 2 2 2 2 2 1 1 1 1 1 1 1 1 1 1 1 1 1 1 1 1 1
11 11 11 11 11 11 11 10 10 10 10 10 10 9 9 9 9 8 8 8 7 7 7 6 6 6 6 5 5 5 4 4 4 4 4 4 3 3 3 3 3 3 3 2 2 2 2 2 2 2 2 1 1 1 1 1 1 1 1 1 1 1 1 1 1 1 1 1 1
11 11 11 11 11 11 10 10 10 10 10 10 10 9 9 9 8 8 8 7 7 7 7 6 6 6 5 5 5 4 4 4 4 4 4 4 3 3 3 3 3 3 2 2 2 2 2 2 2 2 2 1 1 1 1 1 1 1 1 1 1 1 1 1 1 1 1 1 1
11 11 11 11 11 10 10 10 10 10 10 10 9 9 9 8 8 8 7 7 7 6 6 6 6 6 5 5 5 4 4 4 4 4 4 4 3 3 3 3 3 3 2 2 2 2 2 2 2 2 2 1 1 1 1 1 1 1 1 1 1 1 1 1 1 1 1 1 1
11 11 11 11 10 10 10 10 10 10 9 9 9 9 8 8 8 7 7 7 6 6 6 6 6 5 5 5 5 4 4 4 4 4 4 4 3 3 3 3 3 3 2 2 2 2 2 2 2 2 2 1 1 1 1 1 1 1 1 1 1 1 1 1 1 1 1 1 1
11 11 11 10 10 10 10 10 10 9 9 9 9 8 8 7 7 7 7 6 6 6 6 6 5 5 5 5 5 4 4 4 4 4 4 4 3 3 3 3 3 3 2 2 2 2 2 2 2 2 1 1 1 1 1 1 1 1 1 1 1 1 1 1 1 1 1 1 1
11 11 10 10 10 10 10 9 9 9 9 9 8 8 8 7 7 7 6 6 6 6 6 5 5 5 5 5 4 4 4 4 4 4 4 3 3 3 3 3 3 3 2 2 2 2 2 2 2 2 1 1 1 1 1 1 1 1 1 1 1 1 1 1 1 1 1 1 1
11 10 10 10 10 10 9 9 9 9 9 8 8 8 7 7 7 6 6 6 6 6 5 5 5 5 5 4 4 4 4 4 4 4 4 3 3 3 3 3 3 3 2 2 2 2 2 2 1 1 1 1 1 1 1 1 1 1 1 1 1 1 1 1 1 1 1 1 1
10 10 10 10 9 9 9 9 9 9 8 8 8 7 7 7 7 6 6 6 6 6 5 5 5 5 5 4 4 4 4 4 4 4 4 4 3 3 3 3 3 3 2 2 2 2 2 1 1 1 1 1 1 1 1 1 1 1 1 1 1 1 1 1 1 1 1 1 0
10 10 10 9 9 9 9 9 9 8 8 8 7 7 7 7 6 6 6 6 6 6 5 5 5 5 5 4 4 4 4 4 4 4 3 3 3 3 3 3 3 3 2 2 2 2 2 1 1 1 1 1 1 1 1 1 1 1 1 1 1 1 1 1 1 1 1 0 0
10 10 9 9 9 9 9 9 8 8 8 7 7 7 7 6 6 6 6 6 6 6 5 5 5 5 5 4 4 4 4 4 4 4 3 3 3 3 3 3 3 3 2 2 2 2 1 1 1 1 1 1 1 1 1 1 1 1 1 1 1 1 1 1 1 0 0 0 0
10 10 9 9 9 9 9 8 8 8 8 7 7 7 7 6 6 6 6 6 6 5 5 5 5 5 5 4 4 4 4 4 4 4 3 3 3 3 3 3 3 3 2 2 2 1 1 1 1 1 1 1 1 1 1 1 1 1 1 1 1 1 1 0 0 0 0 0 0
10 9 9 9 9 9 8 8 8 8 8 7 7 7 6 6 6 6 6 6 6 5 5 5 5 5 5 4 4 4 4 4 4 3 3 3 3 3 3 3 3 3 2 2 2 1 1 1 1 1 1 1 1 1 1 1 1 1 1 1 1 1 0 0 0 0 0 -0 -0
10 9 9 9 9 8 8 8 8 8 7 7 7 7 6 6 6 6 6 6 6 5 5 5 5 5 5 5 4 4 4 4 4 3 3 3 3 3 3 3 3 2 2 2 2 1 1 1 1 1 1 1 1 1 1 1 1 1 1 1 1 0 0 0 0 0 -0 -0 -0
9 9 9 9 9 8 8 8 8 7 7 7 7 7 7 6 6 6 6 6 6 5 5 5 5 5 5 5 4 4 4 4 4 3 3 3 3 3 3 3 2 2 2 2 2 1 1 1 1 1 1 1 1 1 1 1 1 1 1 1 0 0 0 0 -0 -0 -0 -0 -0
9 9 9 9 9 8 8 8 8 7 7 7 7 7 7 6 6 6 6 6 6 6 5 5 5 5 5 5 4 4 4 4 4 4 3 3 3 3 3 2 2 2 2 2 2 1 1 1 1 1 1 1 1 1 1 1 1 1 0 0 0 0 0 -0 -0 -0 -0 -0 -0
9 9 9 9 9 8 8 8 8 7 7 7 7 7 7 6 6 6 6 6 6 6 6 5 5 5 5 5 4 4 4 4 4 4 3 3 3 3 2 2 2 2 2 2 2 1 1 1 1 1 1 1 1 1 1 0 0 0 0 0 0 -0 -0 -0 -0 -0 -0 -0 -0
9 9 9 9 8 8 8 8 8 7 7 7 7 7 7 6 6 6 6 6 6 6 6 6 5 5 5 5 4 4 4 4 4 4 3 3 3 2 2 2 2 2 2 2 1 1 1 1 1 1 1 1 1 0 0 0 0 0 0 -0 -0 -0 -0 -0 -0 -0 -0 -0 -0
9 9 9 9 8 8 8 8 8 7 7 7 7 7 7 7 6 6 6 6 6 6 6 6 6 5 5 5 4 4 4 4 4 4 3 3 3 2 2 2 2 2 2 2 1 1 1 1 1 1 1 0 0 0 0 0 -0 -0 -0 -0 -0 -0 -0 -0 -0 -0 -0 -0 -0
9 9 9 9 8 8 8 8 8 7 7 7 7 7 7 7 6 6 6 6 6 6 6 6 6 5 5 5 4 4 4 4 4 3 3 3 3 2 2 2 2 2 2 2 2 1 1 1 1 0 0 0 0 0 -0 -0 -0 -0 -0 -0 -0 -0 -0 -0 -0 -0 -0 -0 -0
9 9 9 9 8 8 8 8 8 7 7 7 7 7 7 7 7 6 6 6 6 6 6 6 5 5 5 5 5 4 4 4 3 3 3 3 2 2 2 2 2 2 2 2 2 1 1 1 1 0 0 0 0 -0 -0 -0 -0 -1 -1 -1 -1 -1 -1 -1 -0 -0 -0 -0 -1
9 9 9 8 8 8 8 8 7 7 7 7 7 7 7 7 7 7 6 6 6 6 6 6 5 5 5 5 4 4 4 4 3 3 3 3 2 2 2 2 2 2 2 2 2 1 1 1 0 0 0 0 -0 -0 -0 -0 -1 -1 -1 -1 -1 -1 -1 -1 -1 -1 -1 -1 -1
9 9 9 8 8 8 8 8 7 7 7 7 7 7 7 7 7 7 6 6 6 6 6 5 5 5 5 5 4 4 4 3 3 3 3 3 2 2 2 2 2 2 2 2 2 1 1 1 0 0 0 -0 -0 -0 -1 -1 -1 -1 -1 -1 -1 -1 -1 -1 -1 -1 -1 -1 -1
9 9 8 8 8 8 8 7 7 7 7 7 7 7 7 7 7 7 6 6 6 6 5 5 5 5 5 4 4 4 3 3 3 3 3 3 2 2 2 2 2 2 2 2 1 1 1 1 1 0 0 -0 -0 -1 -1 -1 -1 -1 -1 -1 -1 -1 -1 -1 -1 -1 -1 -1 -1
9 8 8 8 8 8 8 7 7 7 7 7 7 7 7 7 6 6 6 6 6 6 5 5 5 5 4 4 4 3 3 3 3 3 3 3 2 2 2 2 2 2 2 2 2 1 1 1 1 0 0 -0 -0 -1 -1 -1 -1 -1 -1 -1 -1 -1 -1 -1 -1 -1 -1 -1 -1
Height
821 823 823 824 825 826 826 827 827 827 828 828 828 829 830 831 832 832 833 833 833 834 834 834 834 833 833 833 833 833 833 833 833 833 832 832 832 831 831 830 830 830 829 829 829 828 828 828 828 827 827 827 826 826 826 826 825 825 825 824 824 824 823 823 823 822 822 821 821
821 822 823 823 824 825 825 826 826 826 827 827 828 829 829 830 831 832 832 833 833 833 833 833 833 833 833 832 832 832 832 832 831 831 831 831 831 830 830 829 829 828 828 828 828 827 827 827 826 826 826 825 825 825 825 824 824 824 823 823 823 823 822 822 821 821 820 820 819
820 821 822 823 823 824 824 824 825 825 826 827 827 828 829 830 830 831 831 832 832 832 832 832 832 831 831 831 831 831 831 830 830 830 830 830 829 829 829 828 828 828 827 827 826 826 826 825 825 825 824 824 824 824 823 823 823 823 822 822 821 821 821 820 820 819 819 818 818
819 820 821 822 822 823 823 823 824 825 825 826 827 827 828 829 830 830 831 831 831 831 831 831 831 830 830 830 830 829 829 829 829 829 829 828 828 828 828 827 827 826 826 825 825 825 824 824 824 823 823 823 823 823 822 822 822 821 821 820 820 820 819 818 818 818 817 817 816
818 819 820 820 821 822 822 823 823 824 825 825 826 827 827 828 829 829 830 830 830 830 830 830 829 829 829 829 828 828 828 828 828 828 828 827 827 827 826 826 826 825 825 824 824 824 823 823 823 823 822 822 822 821 821 821 820 820 819 819 819 818 818 817 817 816 816 815 815
817 818 819 819 820 821 822 822 823 823 824 824 825 826 826 827 828 828 829 829 829 829 829 829 828 828 828 828 827 827 827 827 826 826 826 826 826 826 825 825 824 824 824 823 823 823 822 822 822 821 821 821 820 820 820 819 819 818 818 818 818 817 816 816 815 815 814 814 813
816 817 818 818 819 820 821 821 822 823 823 823 824 825 825 826 827 828 828 828 828 828 828 828 828 827 827 826 826 826 825 825 825 825 825 825 825 824 824 824 823 823 823 822 822 822 821 821 820 820 820 819 819 819 818 818 818 817 817 816 816 816 815 814 814 813 813 812 812
815 816 817 818 818 819 820 820 821 822 822 823 823 824 825 825 826 827 827 827 827 827 827 827 826 826 826 825 825 824 824 824 824 824 824 823 823 823 823 823 822 822 822 821 821 820 820 819 819 819 818 818 818 818 817 817 816 816 815 815 814 814 813 813 813 812 811 811 810
814 815 816 817 818 818 819 819 820 821 821 822 822 823 824 824 825 826 826 826 826 826 826 826 825 825 824 824 823 823 823 823 823 823 823 822 822 822 822 821 821 821 820 820 820 819 819 818 818 818 817 817 817 816 816 815 815 814 813 813 813 812 812 812 811 810 810 809 809
813 814 815 816 817 817 818 819 819 820 820 821 821 822 823 823 824 824 825 825 825 825 825 824 824 823 823 823 822 822 822 821 821 821 821 821 821 821 821 820 820 820 819 819 818 818 818 817 817 816 816 816 815 815 814 814 813 813 812 812 811 811 810 810 810 809 808 808 807
812 813 814 815 815 816 817 818 818 819 819 820 820 821 822 823 823 823 824 824 824 824 823 823 823 822 822 821 821 821 820 820 820 820 820 820 820 820 819 819 819 818 818 818 817 817 816 816 815 815 815 814 814 813 813 813 812 811 811 810 810 809 809 808 808 808 807 806 806
811 812 813 814 814 815 816 817 817 818 818 819 819 820 821 821 822 823 823 823 823 823 822 822 822 821 821 820 820 819 819 819 819 819 819 819 819 819 818 818 818 817 817 817 816 816 815 814 814 814 813 813 813 812 812 811 810 810 809 809 808 808 807 807 807 806 806 805 804
810 811 812 813 813 814 815 815 816 817 817 818 818 819 820 820 821 821 822 822 822 821 821 821 820 820 819 819 818 818 818 818 818 818 818 818 818 818 817 817 817 816 816 815 815 814 814 813 813 812 812 811 811 811 810 810 809 808 808 807 807 806 806 805 805 805 804 803 803
809 810 811 812 812 813 814 814 815 816 816 817 818 818 819 819 820 820 820 820 820 820 820 819 819 819 818 818 817 817 817 817 817 817 817 817 817 817 816 816 815 815 814 814 813 813 813 812 812 811 810 810 809 809 809 808 808 807 806 806 805 805 804 804 803 803 803 802 801
808 808 809 810 811 812 813 813 814 814 815 816 816 817 818 818 818 819 819 819 819 819 819 818 818 818 817 817 816 816 816 816 816 816 816 816 816 815 815 814 814 814 813 813 812 812 811 811 810 810 809 808 808 808 807 807 806 806 805 804 804 803 803 802 802 802 801 800 799
806 807 808 809 810 811 811 812 813 813 814 815 815 816 816 817 817 818 818 818 818 818 818 817 817 817 816 815 815 815 815 815 815 815 815 815 814 814 814 813 813 812 812 811 811 810 810 810 809 808 808 807 807 806 806 805 805 804 804 803 803 802 801 801 800 800 799 799 798
805 806 807 808 809 809 810 811 812 812 813 813 814 815 815 816 816 816 817 817 817 817 817 816 816 815 815 814 814 814 814 814 814 814 814 813 813 813 813 812 812 811 811 810 809 809 809 808 808 807 807 806 805 805 804 804 803 803 802 802 801 800 800 799 799 798 798 797 796
803 804 806 807 808 808 809 810 811 811 812 812 813 813 814 814 815 815 816 816 816 815 815 815 814 814 813 813 813 813 813 813 813 813 813 812 812 812 811 811 810 810 809 809 808 808 807 807 806 806 805 804 804 803 803 802 802 801 800 800 799 799 798 798 797 797 796 795 795
802 803 804 805 806 807 808 809 809 810 811 811 812 812 813 813 814 814 814 814 814 814 814 813 813 813 813 812 812 812 812 812 812 812 811 811 811 810 810 809 809 808 808 807 807 806 806 805 805 804 803 803 802 802 801 801 800 799 799 798 798 797 797 796 796 795 794 794 793
801 802 803 804 805 806 807 808 808 809 809 810 810 811 812 812 813 813 813 813 813 813 813 812 812 812 811 811 811 811 811 811 811 810 810 810 809 809 808 808 808 807 807 806 805 805 804 804 803 803 802 801 801 800 799 799 798 798 797 797 796 795 795 794 794 793 793 792 791
799 800 802 803 804 805 806 806 807 808 808 809 809 810 811 811 812 812 812 812 812 811 811 811 810 810 810 810 810 810 810 810 809 809 809 808 808 808 807 807 806 806 805 804 804 803 803 802 802 801 800 799 799 798 798 797 796 796 795 794 794 793 793 792 792 791 791 790 789
798 799 801 802 803 804 804 805 806 806 807 808 808 809 810 810 810 811 811 811 810 810 810 809 809 809 809 809 809 809 808 808 808 808 808 807 807 806 806 805 805 804 803 803 803 802 801 800 800 799 798 798 797 796 796 795 794 793 793 792 792 791 791 790 790 789 789 788 788
797 798 800 801 802 803 803 804 805 805 806 807 807 808 808 809 809 809 809 809 809 809 808 808 808 808 808 808 808 808 807 807 807 807 807 806 805 805 804 804 803 803 802 801 801 800 799 798 798 797 796 796 795 794 794 793 793 792 791 790 790 789 789 788 788 787 787 786 786
796 797 798 799 801 801 802 803 803 804 805 806 806 807 808 808 808 808 808 808 808 808 807 807 807 807 807 807 807 806 806 806 806 805 805 805 804 803 803 802 802 801 800 800 799 798 798 797 796 795 794 794 793 793 792 792 791 790 789 788 788 787 787 786 786 785 785 784 783
795 796 797 798 799 800 801 802 802 803 804 805 805 806 806 806 807 807 806 806 806 806 806 806 806 806 806 805 805 805 805 805 804 804 803 803 803 802 801 801 800 799 799 798 798 797 796 795 794 794 793 793 792 791 790 790 789 788 788 787 786 785 784 784 783 783 783 782 782
794 795 796 797 798 799 800 801 801 802 803 804 804 804 805 805 805 805 805 805 805 805 805 804 804 804 804 804 804 804 804 803 803 803 802 801 801 800 799 799 798 798 797 796 796 795 794 794 793 793 792 791 791 790 789 788 788 787 786 785 784 784 783 782 781 781 781 780 780
793 794 795 796 797 798 799 799 800 801 802 803 803 803 803 803 803 803 803 803 803 803 803 803 803 803 803 803 803 803 802 802 801 801 800 800 799 798 798 797 796 796 795 795 794 793 793 792 792 792 791 790 789 788 787 786 786 785 784 783 783 782 781 780 779 779 778 778 778
792 793 794 795 796 797 798 798 799 800 801 801 802 802 802 802 802 802 802 802 802 802 802 802 802 802 802 802 801 801 801 800 800 799 798 798 797 797 796 795 794 794 793 793 792 792 791 791 790 789 789 788 787 786 785 784 784 783 782 782 781 780 779 778 778 777 776 776 775
790 792 793 794 795 796 797 798 798 799 799 800 800 800 800 800 800 800 800 800 800 800 801 801 801 800 800 800 800 799 799 798 798 798 797 796 795 795 794 793 793 792 792 791 790 790 789 788 788 788 787 786 785 784 783 783 782 781 780 780 779 778 778 777 776 775 775 774 773
789 791 792 793 794 795 795 796 797 798 798 799 799 799 799 799 799 799 799 799 799 799 799 799 799 799 798 798 798 798 797 797 796 796 795 794 793 793 792 792 791 790 790 789 788 788 787 787 786 785 785 784 783 783 782 781 780 779 778 778 777 776 776 775 774 773 773 772 771
788 790 791 792 793 793 794 795 796 797 797 797 797 797 797 797 797 797 798 798 798 798 798 798 798 797 797 797 797 796 795 795 794 794 793 793 792 791 790 790 789 788 788 787 787 786 785 785 784 783 783 782 782 781 780 779 778 777 776 776 775 774 774 773 772 772 771 770 769
788 788 790 791 792 793 793 794 795 795 796 796 796 796 796 796 796 796 796 796 796 796 796 796 796 796 795 795 795 794 794 793 793 792 792 791 790 789 788 788 787 786 786 785 785 784 783 783 782 782 781 780 779 778 778 777 776 775 774 774 773 772 772 771 770 770 769 768 768
786 788 788 789 790 791 792 793 793 794 794 794 794 794 794 794 794 795 795 795 795 795 795 794 794 794 793 793 793 792 792 791 791 790 790 789 788 787 786 786 785 784 784 783 783 782 782 781 780 780 779 778 778 777 775 775 774 773 772 772 771 770 770 769 768 768 767 767 766
785 787 788 788 789 790 791 792 792 793 793 793 793 793 793 793 793 793 793 793 793 793 793 793 793 792 792 791 791 790 790 789 789 788 788 787 786 786 784 783 783 783 782 782 781 780 780 779 778 778 777 776 775 774 773 773 772 771 770 769 768 768 768 767 766 766 765 764 764
784 786 787 788 788 789 790 790 791 791 791 791 791 791 792 792 792 792 792 792 792 792 791 791 791 790 790 789 789 789 788 787 787 786 786 785 784 783 783 781 781 780 780 780 779 778 778 777 776 775 775 774 773 772 771 770 769 768 768 767 766 766 765 765 764 764 763 763 762
783 785 786 787 788 788 789 789 789 790 790 790 790 790 790 790 790 790 790 790 790 790 789 789 788 788 788 788 787 787 786 786 785 784 784 783 783 781 780 779 778 778 778 778 777 776 775 775 774 773 773 772 771 770 769 768 767 766 766 765 764 763 763 763 762 762 761 760 760
783 784 785 786 787 787 788 788 788 788 788 788 788 789 789 789 789 789 789 789 788 788 787 787 787 786 786 786 785 785 784 784 783 782 781 781 780 779 778 777 776 776 776 775 775 774 773 773 772 771 770 769 768 768 767 766 765 764 763 763 762 761 761 760 760 759 758 758 758
782 783 784 785 785 786 786 787 787 787 787 787 788 788 788 788 787 787 787 787 786 786 785 785 784 784 784 783 783 783 782 782 781 780 779 778 778 777 776 775 774 773 773 773 773 772 771 770 770 769 768 767 766 765 764 764 763 762 761 760 759 759 758 758 758 757 756 756 756
782 783 783 784 785 785 785 786 786 786 786 786 786 786 786 786 786 785 785 785 784 784 783 783 782 782 782 782 781 780 779 779 779 778 777 776 776 775 774 773 772 771 771 771 770 769 769 768 767 767 766 765 764 763 763 762 761 760 759 758 757 757 756 756 755 754 754 753 753
781 782 783 783 784 784 784 785 785 785 785 785 785 785 784 784 784 784 783 783 783 782 781 781 780 780 780 780 779 778 777 776 776 776 775 774 773 773 772 771 769 768 768 768 768 767 766 766 765 764 764 763 762 761 760 760 759 758 757 756 755 754 754 753 753 753 752 751 751
781 781 782 783 783 783 783 783 784 784 784 784 783 783 783 783 782 782 782 781 781 780 779 779 778 778 778 777 777 776 775 774 773 773 773 772 771 771 770 769 767 766 766 765 765 765 764 763 763 762 761 761 760 759 758 758 757 756 755 754 753 753 752 751 750 750 750 749 748
Wind_Speed
20 20 20 19 18 17 17 16 15 14 13 13 12 11 10 9 7 7 7 7 8 8 9 10 10 11 11 12 13 13 14 14 15 15 15 15 15 15 15 15 15 15 15 15 15 14 14 14 13 13 13 13 13 13 13 13 13 13 13 12 12 12 12 13 13 13 13 13 13
20 20 19 18 18 17 17 16 15 14 14 13 11 10 9 8 7 7 7 8 8 9 10 10 11 11 12 13 13 14 14 15 15 16 16 16 16 16 16 16 16 16 15 15 14 14 13 13 13 13 12 13 13 13 13 13 13 13 13 13 12 12 13 13 13 13 13 14 13
21 20 19 18 17 17 17 16 15 14 13 12 10 9 8 7 7 7 8 9 9 10 10 11 11 12 13 13 14 15 15 16 16 17 17 17 17 17 17 17 16 15 15 14 14 13 13 12 12 12 12 12 13 13 13 13 13 13 13 13 13 13 13 14 14 14 14 14 14
21 20 19 18 18 17 17 16 15 14 12 11 9 8 7 7 7 8 8 9 10 10 11 11 12 13 13 14 15 15 16 17 17 17 18 18 18 18 17 16 16 15 14 13 13 12 12 12 12 12 12 12 13 13 13 13 13 13 13 14 14 14 14 14 14 14 14 14 14
21 19 19 18 18 17 17 16 14 13 11 10 8 8 7 7 8 8 9 10 10 11 11 12 12 13 14 14 15 16 17 17 18 18 18 18 18 18 17 16 15 14 14 13 12 12 12 12 12 12 12 12 13 13 13 14 14 14 14 14 14 14 14 14 14 14 14 14 14
21 19 19 18 18 17 16 15 13 12 10 9 8 8 8 8 8 9 10 10 11 11 11 12 13 13 14 15 15 16 17 17 18 18 18 18 18 17 16 15 15 14 13 12 12 11 11 12 12 12 12 13 13 13 14 14 14 14 15 15 14 14 14 14 14 14 14 15 15
21 20 19 19 18 17 16 14 13 12 10 9 8 8 8 8 9 9 10 10 11 11 12 12 13 13 14 15 16 16 17 17 17 18 17 17 17 16 16 15 14 13 13 12 12 11 12 12 12 12 13 13 13 14 14 14 14 15 15 15 15 15 15 15 15 15 15 15 15
21 21 20 19 18 17 15 14 13 11 10 9 9 8 8 8 9 9 10 10 11 11 11 12 13 13 14 15 15 16 16 17 17 17 16 16 16 15 15 14 13 13 12 12 12 12 12 12 13 13 13 14 14 14 14 15 15 15 16 16 16 15 15 15 15 15 15 15 16
22 21 20 19 17 16 15 14 12 11 10 10 9 9 9 9 9 9 9 10 10 10 11 12 12 13 13 14 15 15 15 16 16 15 15 15 15 14 14 14 13 12 12 12 12 12 13 13 13 13 14 14 14 14 15 15 15 16 16 16 16 16 16 15 15 15 15 15 16
22 21 20 19 18 16 15 14 12 12 11 10 10 9 9 8 8 8 9 9 9 10 11 11 12 12 13 13 14 14 14 14 15 14 14 14 14 14 13 13 13 12 12 12 12 13 13 13 14 14 14 14 14 15 15 15 16 16 16 17 17 17 17 16 15 15 15 15 15
23 22 20 19 18 16 15 14 13 12 11 11 10 9 9 8 8 8 8 8 9 10 11 11 11 12 12 12 13 13 13 13 14 14 14 13 13 13 13 13 13 13 13 13 13 13 13 14 14 14 15 15 15 15 15 15 16 16 17 17 17 17 17 16 15 15 15 15 15
23 22 20 19 18 16 15 14 13 12 12 11 10 9 8 8 7 7 7 8 9 10 10 10 11 11 11 12 12 12 12 13 13 13 13 13 13 13 13 13 13 13 13 13 13 13 14 14 14 15 15 15 15 15 15 15 16 16 17 17 17 17 16 16 15 15 14 15 16
23 22 20 19 18 16 15 14 14 13 12 11 10 9 8 7 7 7 7 8 9 9 9 10 10 10 11 11 11 11 12 12 12 12 12 12 13 13 13 13 13 13 13 13 13 14 14 14 14 15 15 15 15 15 15 15 16 17 17 17 17 16 16 16 15 15 15 15 16
23 22 20 19 18 17 16 15 14 13 12 11 9 8 8 7 7 6 7 8 8 9 9 9 10 10 10 10 10 11 11 11 12 12 12 12 13 13 13 13 13 13 13 13 13 14 14 14 14 15 15 15 16 15 15 16 16 17 17 17 17 16 16 16 15 15 15 16 17
23 22 20 19 18 17 16 15 14 13 12 11 9 9 8 7 7 6 7 7 8 8 8 9 9 9 9 10 10 10 11 11 11 12 12 12 12 13 13 13 13 13 13 13 13 13 13 14 14 14 15 15 16 16 16 16 16 17 17 16 16 16 16 16 16 16 16 17 18
23 22 20 19 18 18 17 16 14 13 12 11 9 9 8 7 7 6 7 7 8 8 8 8 8 8 9 9 9 10 10 11 11 12 12 12 13 13 13 13 13 13 13 13 13 13 13 13 14 14 15 16 16 17 17 17 17 17 16 16 16 16 16 17 17 17 18 18 19
23 22 21 20 19 18 17 16 15 13 12 11 9 9 8 7 7 7 7 7 7 8 8 8 8 8 8 8 9 10 10 11 11 12 12 13 13 13 13 13 13 13 13 14 14 14 14 14 14 14 15 16 16 17 17 17 17 17 16 16 16 16 17 17 18 18 19 20 20
24 22 21 21 20 19 17 16 14 13 12 10 9 8 8 7 7 7 7 7 7 7 7 8 8 8 8 8 9 10 10 11 12 12 13 13 13 14 14 14 14 13 14 14 14 14 14 14 14 15 15 16 17 17 17 17 17 16 16 16 17 17 18 18 19 19 20 20 21
24 23 22 21 20 19 17 16 14 13 12 10 9 8 8 7 7 7 7 7 7 7 7 7 8 8 8 9 9 10 11 12 12 13 13 13 14 14 14 14 14 14 14 14 14 14 14 15 15 15 16 17 17 17 17 17 16 16 17 17 18 18 19 19 20 20 20 21 22
25 23 23 22 20 19 17 16 14 13 11 10 9 8 8 8 7 7 7 7 7 7 7 7 8 8 9 9 10 11 11 12 13 14 14 14 14 14 14 14 14 14 14 14 14 15 15 15 16 16 17 17 17 17 17 17 17 17 18 19 19 20 20 20 21 21 21 22 22
25 24 23 22 20 18 17 15 14 12 11 10 9 9 8 8 7 7 7 6 6 6 7 7 7 8 9 10 11 11 12 13 14 14 15 15 15 15 15 15 15 15 15 15 15 15 15 16 16 17 17 17 17 17 17 18 18 19 20 20 21 21 21 21 22 22 22 23 23
25 24 23 21 20 18 17 15 14 12 11 10 9 9 8 8 8 7 6 6 6 6 6 7 7 8 9 10 11 12 13 14 14 15 15 16 16 15 15 15 15 15 15 15 15 15 16 16 17 17 17 17 17 18 18 19 20 21 21 22 22 22 22 22 23 23 23 23 24
25 24 23 21 19 18 17 15 14 12 11 10 10 9 9 8 8 7 7 6 6 6 6 7 8 8 10 11 12 13 14 15 15 15 16 16 16 16 16 16 16 16 16 15 15 16 17 17 18 18 17 18 18 19 19 20 21 22 22 23 23 23 23 23 23 24 24 24 24
25 24 23 21 20 18 17 15 14 12 12 11 10 10 9 8 8 7 7 6 6 6 6 7 8 9 10 11 12 13 14 15 16 16 16 16 16 16 16 16 16 16 16 16 16 16 17 18 18 18 18 18 19 20 21 21 22 22 23 24 24 24 24 24 24 24 24 24 24
25 24 23 21 20 18 17 15 14 13 12 11 10 10 9 9 8 8 7 7 7 7 7 8 9 10 11 12 13 14 14 15 16 16 17 17 17 17 17 17 17 17 16 16 16 17 17 17 17 17 18 19 20 21 21 22 22 22 23 24 24 25 25 25 25 25 25 25 24
25 24 23 21 20 18 17 15 14 13 12 11 11 10 10 9 9 9 8 8 8 8 8 9 10 11 12 13 14 15 15 16 16 17 17 17 17 17 17 17 17 17 17 17 17 17 17 16 16 17 18 19 20 21 21 22 22 22 23 23 24 24 25 25 26 25 25 25 24
26 24 23 21 20 18 17 15 14 13 12 12 11 11 10 10 10 10 9 9 9 9 10 11 12 13 13 14 15 16 16 17 17 17 17 18 18 18 18 18 18 18 17 17 17 17 17 17 17 17 18 19 20 20 21 22 22 22 23 23 24 24 25 25 26 26 26 25 25
26 24 23 21 20 18 17 15 14 14 13 12 11 11 10 11 11 11 11 11 11 11 12 12 13 14 15 16 17 17 17 18 18 18 18 18 19 19 19 19 19 18 18 18 18 18 18 17 18 18 18 18 19 20 21 21 22 23 23 24 24 24 25 25 25 26 26 25 25
26 24 23 21 20 18 17 16 15 14 13 12 12 11 12 12 12 12 12 12 13 13 14 14 15 16 17 17 18 18 18 19 19 19 19 19 19 20 19 19 19 19 19 19 19 18 18 18 18 18 18 18 19 20 21 21 22 23 23 24 24 25 25 25 25 25 25 25 25
25 24 23 21 20 19 18 17 15 14 13 13 13 13 13 13 13 13 13 14 14 15 15 16 17 18 18 19 19 19 19 20 20 20 20 20 20 20 20 20 20 20 20 19 19 19 19 19 19 19 19 19 19 20 21 22 22 23 24 24 25 25 25 25 26 26 26 26 26
25 24 22 21 20 19 18 16 15 15 14 14 14 14 14 14 14 15 15 16 16 16 17 18 19 19 20 20 20 20 20 21 21 21 21 21 21 21 21 21 21 21 21 20 20 20 19 19 19 19 19 19 19 20 21 22 22 23 24 25 25 25 26 26 26 26 26 26 26
25 24 22 21 20 19 18 17 16 15 15 15 14 15 15 15 16 16 16 17 17 18 19 19 20 21 21 21 21 21 21 22 22 22 21 21 21 22 22 22 22 22 22 21 21 20 19 19 19 19 19 19 19 20 21 22 23 23 24 25 25 26 26 26 27 27 27 26 27
25 24 22 21 20 19 18 17 17 16 16 15 15 16 16 17 17 17 18 18 19 19 20 21 21 21 21 21 21 22 22 22 23 22 22 22 22 22 23 23 23 23 22 22 21 20 20 19 19 20 20 20 20 20 21 22 23 24 25 25 26 26 27 27 27 27 27 26 26
25 24 23 21 20 19 18 17 17 16 16 16 17 17 17 18 18 19 19 19 20 20 21 21 22 22 22 22 22 23 23 23 23 23 23 23 22 23 23 24 24 24 23 23 22 21 20 20 20 20 20 20 20 21 22 23 24 25 25 26 27 27 27 27 26 26 26 25 26
25 24 23 21 20 19 18 18 17 17 17 17 18 18 19 19 19 20 20 20 21 22 22 22 22 22 22 22 23 23 24 24 24 24 23 23 23 23 24 25 25 24 24 23 22 22 21 21 20 20 20 20 20 21 22 23 24 25 26 26 27 27 26 26 25 25 25 25 25
25 24 23 21 20 19 18 18 17 17 18 18 19 19 20 20 20 20 21 21 22 23 23 23 23 22 23 23 23 24 24 24 25 24 24 24 24 24 25 26 26 25 24 24 23 23 22 21 21 20 20 20 21 22 23 24 24 25 26 26 26 26 26 25 25 25 25 25 24
24 23 22 21 20 19 18 18 18 18 19 19 20 20 20 20 21 21 21 22 23 23 23 23 23 23 23 24 24 25 25 25 25 25 25 25 25 25 26 27 27 26 25 25 24 23 22 21 21 20 20 20 21 22 23 24 24 25 25 26 26 26 26 25 25 25 25 25 24
23 22 21 21 20 19 18 18 18 19 20 20 20 20 21 21 21 22 22 22 23 24 24 24 24 24 24 24 25 25 25 25 25 25 26 26 26 26 27 27 28 27 26 25 25 24 23 22 21 20 20 21 22 22 23 23 24 25 25 25 26 26 26 25 25 25 25 24 24
22 21 20 20 19 18 18 18 19 20 20 20 20 21 21 22 22 23 23 23 24 24 25 25 25 25 25 25 25 26 26 26 25 26 26 27 27 27 27 28 28 28 27 26 25 24 23 23 22 21 20 20 21 22 22 23 24 24 25 25 25 26 26 25 25 25 25 24 23
21 20 19 18 18 17 18 18 19 19 20 20 21 21 22 22 23 23 24 24 25 25 25 25 26 25 25 25 26 26 27 27 27 27 27 28 28 28 28 28 29 29 28 27 26 25 24 24 23 22 21 20 21 21 22 22 23 24 24 25 25 25 25 25 24 24 24 24 23
19 18 18 17 17 17 17 18 19 19 20 20 21 22 22 23 24 24 25 25 26 26 26 26 26 26 25 25 26 27 28 28 28 28 28 28 28 28 28 28 29 29 29 28 27 26 25 24 24 22 21 20 20 20 21 22 23 24 24 24 24 24 24 25 24 24 23 23 23
Wind_Direction
205 204 205 204 202 200 196 194 194 195 198 200 201 203 207 213 221 232 243 253 260 267 273 278 282 286 289 291 293 295 296 297 298 299 299 300 300 301 302 302 303 304 304 304 304 304 303 302 303 304 306 308 310 312 314 316 317 317 317 316 316 315 313 310 309 308 307 305 303
200 200 200 199 198 196 194 192 192 194 196 199 201 204 210 218 228 240 250 258 263 268 274 278 282 285 288 290 292 294 296 297 298 298 299 299 300 300 301 302 303 304 304 303 303 302 301 302 303 305 307 309 312 315 317 318 318 318 317 316 316 315 313 310 309 308 307 306 305
196 196 195 193 193 192 192 192 193 194 195 197 201 206 214 225 236 245 253 259 264 270 275 279 282 285 288 290 292 294 295 297 298 298 299 299 300 301 301 302 304 304 304 303 302 301 301 301 303 305 308 311 313 316 318 319 319 319 318 316 316 314 312 310 309 308 307 306 305
193 193 191 190 191 192 194 194 195 194 195 197 202 209 220 231 240 249 255 261 267 271 275 279 283 285 288 290 292 294 295 297 298 298 299 300 300 301 302 303 304 304 303 302 301 300 300 301 303 306 309 312 314 317 319 320 319 318 317 315 314 313 311 309 308 307 306 305 304
190 190 190 190 192 194 195 196 195 195 196 199 204 213 223 233 242 250 256 263 268 272 276 280 283 286 289 291 293 295 296 297 298 299 300 301 301 302 303 304 304 303 303 301 300 299 299 300 303 307 310 314 316 319 320 319 319 317 315 313 312 311 309 307 307 306 305 304 303
189 188 189 191 193 194 194 194 195 196 198 202 207 214 224 234 243 250 257 263 268 273 277 281 284 287 290 292 294 295 296 298 298 299 301 301 302 302 303 304 304 303 302 300 299 298 299 301 304 307 311 314 317 318 319 319 318 315 313 311 310 309 308 306 305 305 304 303 303
189 189 190 192 193 193 193 194 196 198 201 204 208 215 224 233 242 250 256 263 269 273 278 282 285 288 290 292 294 295 297 298 299 300 301 302 302 303 304 304 304 303 302 300 299 299 299 302 305 308 312 314 316 317 317 317 315 313 311 309 308 307 307 306 305 305 305 304 303
190 191 192 192 193 193 194 195 197 199 202 205 209 215 223 232 240 248 256 262 268 274 279 283 286 289 291 293 294 296 298 299 301 301 302 303 304 304 304 304 304 303 301 300 300 299 300 303 306 309 312 314 315 316 316 315 313 311 310 308 308 307 306 306 306 305 305 304 304
190 191 192 191 192 193 194 197 199 201 202 204 208 214 221 229 238 246 255 262 269 275 280 283 286 289 292 294 296 298 299 301 302 303 304 304 305 305 304 304 303 302 301 300 300 301 302 304 306 308 310 312 313 313 313 313 311 310 309 308 308 307 306 306 306 306 305 305 304
190 191 191 190 191 193 196 198 200 202 203 203 206 211 217 225 235 245 254 263 271 276 280 284 288 291 293 296 298 300 301 303 303 304 305 305 305 305 304 303 303 302 301 301 301 302 302 304 306 308 309 310 311 312 311 311 310 309 308 308 308 307 307 306 306 306 306 305 305
192 191 190 190 192 194 197 199 200 201 201 201 203 207 214 223 234 245 255 265 272 276 281 286 290 292 295 297 300 301 303 303 304 305 305 305 304 304 303 302 302 301 301 301 301 302 303 304 305 306 308 309 310 310 311 310 309 308 308 308 307 307 307 306 306 307 306 307 306
192 191 191 192 193 195 197 198 198 198 197 198 201 205 212 223 234 246 257 266 272 277 282 287 290 293 296 298 301 302 303 304 304 303 303 302 302 302 301 301 301 300 300 301 301 302 303 304 305 306 307 308 309 310 310 310 309 308 308 307 307 306 306 306 306 307 307 307 307
191 190 190 192 194 196 196 196 195 195 194 196 199 205 212 223 234 246 258 266 272 278 283 287 290 293 296 298 300 301 302 302 302 301 301 300 300 300 300 300 300 300 301 301 301 302 303 305 306 307 308 308 308 309 309 309 309 308 307 307 306 305 305 306 307 308 308 307 307
191 190 191 193 194 194 194 193 192 192 193 195 199 205 214 224 234 246 258 266 272 277 282 286 290 293 295 297 299 300 300 300 300 299 299 299 300 300 300 300 300 301 301 301 302 303 304 305 306 307 308 308 308 308 308 308 307 306 306 305 305 305 305 306 307 308 308 308 307
190 191 192 193 193 193 192 191 190 190 192 195 199 205 214 225 234 246 258 265 271 276 281 284 287 290 293 296 298 298 298 299 298 298 299 299 300 301 301 301 302 302 302 302 302 302 303 305 306 307 307 308 308 308 307 307 306 305 304 304 304 304 305 306 308 308 308 308 307
190 191 192 192 192 191 189 189 188 189 191 195 199 206 215 225 235 246 256 263 270 276 279 281 284 288 291 294 297 298 298 298 299 299 300 301 302 302 303 303 304 304 303 302 302 302 303 304 306 307 307 307 307 307 306 306 305 304 303 303 303 304 305 306 308 308 308 307 306
190 191 191 191 190 189 188 187 187 189 192 195 199 206 215 224 235 245 254 260 267 272 276 279 284 288 291 294 296 297 298 298 299 300 301 302 303 304 304 304 304 304 303 303 302 303 303 304 306 306 306 306 306 306 305 304 304 303 302 303 303 304 305 306 307 307 307 306 305
191 191 190 189 188 187 187 186 187 189 192 195 200 206 214 224 234 243 251 258 264 269 273 278 285 290 293 295 296 297 298 299 300 301 302 303 304 304 304 304 304 303 303 302 303 303 304 305 306 306 306 305 304 304 304 303 303 303 303 304 304 305 305 306 306 307 306 305 304
190 190 189 188 187 186 186 186 187 189 192 195 200 206 214 222 231 239 246 254 262 270 275 281 287 293 296 297 298 298 299 299 300 300 301 302 303 303 303 303 302 302 301 301 302 303 304 305 306 306 305 304 304 303 303 303 303 303 304 305 305 305 305 306 306 306 306 305 304
189 189 187 186 186 185 185 186 188 189 192 195 200 206 213 221 229 235 240 247 259 271 280 286 292 296 299 301 301 300 300 299 300 301 301 302 302 302 302 302 301 300 300 301 302 303 304 305 305 305 305 304 304 304 304 305 305 305 305 305 305 305 305 306 306 306 305 304 304
189 188 186 186 185 185 186 187 188 190 192 195 200 206 212 219 226 231 237 246 259 271 281 290 298 301 303 304 304 303 302 301 302 302 302 301 301 301 300 300 299 299 299 300 301 303 304 305 305 305 304 304 304 305 306 307 306 306 305 305 305 305 305 305 305 305 305 304 304
187 186 185 185 185 185 186 187 189 190 192 196 200 206 211 217 223 229 238 248 261 272 284 294 301 305 307 307 307 306 305 305 304 303 303 302 301 300 299 298 298 298 298 300 302 304 305 305 305 305 305 305 306 307 307 307 306 306 305 304 304 304 304 305 305 304 304 304 303
186 185 185 184 185 186 187 188 189 191 193 197 201 205 211 216 221 229 239 250 262 275 287 297 304 307 309 309 308 309 308 308 307 306 304 302 300 299 298 297 296 297 298 300 303 305 305 305 306 306 307 307 307 307 307 305 305 304 304 303 303 303 303 303 303 303 303 303 303
185 184 184 185 186 187 188 189 190 192 195 198 202 207 212 216 223 231 240 251 263 276 288 296 302 305 306 307 308 308 309 309 309 308 306 304 301 299 297 296 296 297 298 301 303 305 306 307 308 308 308 307 305 304 303 302 302 301 301 301 302 302 302 301 301 301 302 302 302
185 184 185 186 187 189 190 191 192 194 197 200 204 210 215 220 227 235 245 255 266 277 287 293 298 301 302 304 304 306 308 309 309 309 307 305 302 300 298 297 296 297 299 302 304 306 307 306 303 302 301 300 300 299 298 298 297 298 298 298 299 299 299 299 299 300 300 300 300
185 185 186 187 189 190 191 193 194 197 200 204 209 214 219 225 233 242 251 259 268 276 283 289 294 296 297 299 300 303 306 308 309 308 308 306 304 302 300 298 298 299 301 303 305 307 307 302 296 293 293 293 294 294 294 294 294 295 296 296 297 297 297 297 298 299 299 299 299
185 186 188 189 190 192 193 195 198 201 205 209 213 219 224 231 239 247 255 263 270 276 282 286 290 292 293 294 297 300 303 306 307 308 307 306 305 303 302 300 300 301 302 304 306 307 305 300 294 292 291 291 291 292 292 293 294 295 295 295 295 296 296 296 297 298 298 298 298
187 188 189 191 193 194 196 199 202 206 209 214 219 224 231 237 244 251 258 265 271 276 280 285 287 289 289 291 294 297 301 304 306 307 307 306 305 304 303 301 301 301 303 305 307 306 303 298 295 293 292 291 291 292 292 293 294 294 294 295 295 295 295 295 296 297 298 298 298
189 190 191 193 195 198 200 203 207 211 214 219 224 231 237 243 249 255 261 266 271 275 280 284 285 286 287 289 292 296 299 302 304 306 306 306 305 304 303 302 302 302 303 305 307 305 303 300 298 296 294 293 292 292 292 293 293 293 294 294 294 294 295 295 296 297 297 298 298
190 192 194 196 199 201 204 208 211 215 219 225 231 237 243 249 254 258 263 267 271 275 280 282 283 284 285 288 291 294 297 300 303 305 305 305 304 304 304 303 303 303 304 305 306 305 303 300 299 296 294 293 292 292 292 292 292 292 292 293 293 293 294 295 296 297 297 298 298
193 194 197 199 202 205 208 212 215 220 224 230 236 242 248 253 257 261 265 269 273 276 279 280 281 282 284 287 289 292 295 299 301 303 304 304 304 304 304 303 303 303 304 305 306 305 304 301 297 295 294 294 293 292 291 291 291 291 291 292 292 293 294 295 296 296 297 298 299
195 197 199 203 206 209 212 216 220 224 229 235 241 247 252 257 261 264 268 271 273 276 278 279 280 282 284 286 288 291 294 297 300 302 303 303 304 303 303 303 302 303 304 305 305 304 302 298 295 294 294 294 293 292 291 290 290 290 290 291 291 292 293 294 295 296 297 298 298
197 200 202 206 210 213 216 220 224 228 234 240 245 251 255 260 263 267 269 271 274 276 278 279 281 282 284 286 288 290 294 297 299 301 303 303 303 302 302 301 301 302 304 305 304 302 299 297 295 294 294 294 293 291 290 289 289 289 289 290 290 291 293 294 295 296 297 297 297
200 202 206 209 213 217 220 224 228 233 238 244 249 253 258 261 265 268 271 274 276 278 280 281 282 283 284 285 287 290 293 297 299 300 301 301 301 300 299 299 300 301 303 304 302 300 298 297 296 296 295 294 292 290 289 289 289 289 289 290 290 291 292 293 295 296 296 297 296
202 205 209 213 217 221 225 228 233 238 243 247 252 256 260 263 267 270 274 276 279 280 281 282 283 284 285 286 288 290 293 295 298 299 300 299 298 297 296 297 299 301 302 302 301 301 300 298 297 296 295 293 291 289 288 289 289 289 290 290 291 291 293 294 295 296 297 297 296
205 208 212 216 220 224 229 233 238 242 247 251 255 259 262 266 269 273 276 279 280 282 283 284 285 285 286 287 289 291 293 295 296 297 298 297 295 294 294 296 298 300 301 301 301 301 301 300 298 297 295 292 290 288 288 289 289 289 290 290 291 292 293 295 296 297 297 296 296
208 211 215 219 224 228 233 237 243 247 251 255 259 262 266 270 273 276 278 281 283 284 285 286 286 286 287 288 290 292 294 295 295 295 295 294 293 292 293 295 297 298 299 300 301 301 301 299 298 296 294 291 289 289 289 289 289 289 290 290 291 292 294 295 296 297 297 296 295
211 215 219 223 228 232 237 242 247 251 255 259 263 267 270 273 276 278 281 283 285 286 287 287 287 287 288 290 292 293 293 293 292 292 292 292 292 291 292 293 294 297 298 300 300 300 300 298 297 295 293 290 289 288 288 288 288 289 289 289 290 291 293 294 295 295 295 294 293
214 218 222 227 232 237 242 247 251 255 259 263 267 271 274 276 279 281 284 286 287 288 289 289 289 289 290 292 292 292 291 291 291 290 289 290 291 291 291 291 292 295 297 299 300 299 299 297 297 295 293 289 287 286 286 286 287 287 287 288 288 289 291 291 292 292 292 292 291
217 221 226 231 236 242 247 252 256 260 265 269 272 275 278 280 282 285 286 288 289 290 291 290 290 291 291 291 290 290 290 290 289 289 288 289 290 290 290 289 291 293 296 298 298 298 298 297 297 296 292 289 286 285 284 285 285 285 285 285 286 287 288 289 289 289 289 289 289
221 225 230 236 242 247 253 258 262 266 271 274 277 280 282 284 286 287 289 291 292 292 292 292 292 292 291 290 289 288 288 288 288 289 289 289 289 289 289 288 290 292 294 295 296 297 297 297 297 295 291 287 284 283 282 282 282 282 282 283 284 285 286 288 288 287 286 286 287